Home   Weather   São Paulo   Past weeks

Flag for Brazil Past Weather in São Paulo, São Paulo, Brazil — Yesterday and Last 2 Weeks

Now
64 °F

More clouds than sun.


Feels Like: 64 °F
Forecast: 57 / 66 °F
Wind: 3 mph from West

Location: Sao Paulo Airport

Current Time: Apr 27, 2017 at 8:02:44 am

Latest Report: Apr 27, 2017 at 7:30 am


Visibility: 6 mi

Pressure: N/A

Humidity: 88%

Dew Point: 61 °F

Location of São PauloLocation

Past Weather in São Paulo — Graph

°F

São Paulo Temperature Yesterday

Maximum temperature yesterday: 75 °F (at 9:00 am)
Minimum temperature yesterday: 63 °F (at 12:00 pm)
Average temperature yesterday: 69 °F

High & Low Weather Summary for the Past Weeks

 TemperatureHumidityPressure
High84 °F (Apr 16, 2:00 pm)94% (Apr 12, 8:00 pm)30.24 "Hg (Apr 12, 8:00 pm)
Low59 °F (Apr 19, 1:00 am)32% (Apr 27, 6:00 am)29.89 "Hg (Apr 26, 3:00 am)
Average67 °F78%30.10 "Hg
* Reported Apr 12 7:00 am — Apr 27 7:00 am, São Paulo, Weather by CustomWeather, © 2017

Note: Actual official high and low records may vary slightly from our data, if they occured in-between our weather recording intervals... More about our weather records

Advertising

São Paulo Weather History for the Previous 24 Hours

Scroll right to see more
 ConditionsComfort  
Time TempWeatherWind HumidityBarometerVisibility
7:00 am
Thu, Apr 27
64 °FMostly cloudy.5 mph88%N/A6 mi
6:00 am64 °FDrizzle. Mostly cloudy.5 mph32%N/A6 mi
5:04 am64 °FMostly cloudy.8 mph88%30.04 "HgN/A
5:00 am64 °FOvercast.7 mph88%30.04 "Hg6 mi
4:43 am64 °FMostly cloudy.8 mph88%30.04 "HgN/A
4:00 am64 °FOvercast.3 mph88%30.01 "HgN/A
3:00 am64 °FPassing clouds.6 mph88%29.98 "HgN/A
2:00 am64 °FPassing clouds.9 mph88%30.01 "HgN/A
1:00 am64 °FLight rain. Passing clouds.9 mph88%29.98 "HgN/A
12:00 am64 °FLight rain. Overcast.12 mph88%30.01 "HgN/A
11:00 pm
Wed, Apr 26
64 °FOvercast.10 mph88%30.01 "HgN/A
10:00 pm64 °FPassing clouds.14 mph88%29.98 "HgN/A
9:00 pm66 °FOvercast.9 mph83%29.98 "HgN/A
8:00 pm66 °FLight rain. Passing clouds.7 mph83%29.95 "HgN/A
7:00 pm64 °FLight rain. Overcast.9 mph88%29.98 "HgN/A
6:00 pm66 °FLight rain. Overcast.10 mph83%29.98 "HgN/A
5:00 pm66 °FLight rain. Partly sunny.12 mph83%29.98 "Hg6 mi
4:00 pm66 °FLight rain. Overcast.7 mph83%29.95 "HgN/A
3:00 pm70 °FLight rain. Partly sunny.12 mph73%29.92 "HgN/A
2:00 pm68 °FPartly sunny.9 mph78%29.92 "HgN/A
1:00 pm66 °FPartly sunny.5 mph83%29.98 "HgN/A
12:00 pm63 °FThundershowers. Partly sunny.10 mph88%30.01 "Hg2 mi
11:28 am70 °FHeavy rain. Fog.12 mph83%N/A1 mi
11:22 am70 °FRain. Fog.13 mph83%N/A2 mi
11:00 am70 °FRain. Broken clouds.21 mph83%29.98 "Hg4 mi
10:00 am72 °FLight rain. Partly sunny.17 mph78%29.98 "Hg4 mi
9:00 am75 °FSunny.21 mph65%29.95 "Hg10 mi
8:00 am73 °FSunny.14 mph69%29.92 "Hg10 mi
Weather by CustomWeather, © 2017

See weather overviewHow to use our weather pages